Simultaneous Nadir Overpasses (SNOs) Predictions

Prediction of SNOs between GOES-15 and TERRA Satellite Orbit:

Table of predicted SNOs for the next 14.0 days since TLE Epoch: 2/25/2012
Index Date Time (GOES-15) GOES-15 Lat,Lon TERRA Lat,Lon Distance(km) Time Diff (sec)
1 02/25/2012 07:40:13 0.01,-135.43 -0.50,-137.91 282.00 80
2 02/27/2012 07:30:43 0.01,-135.45 0.11,-134.95 56.43 80
3 02/29/2012 07:18:32 0.02,-135.47 0.75,-132.00 394.28 80
4 02/29/2012 19:39:47 -0.02,-135.47 0.32,-137.16 191.61 80
5 03/02/2012 19:24:55 -0.02,-135.48 -0.29,-134.20 145.66 80
6 03/03/2012 07:46:19 0.02,-135.48 -0.81,-139.39 444.66 80
7 03/04/2012 19:12:43 -0.02,-135.49 -0.92,-131.24 482.61 80
8 03/05/2012 07:34:07 0.02,-135.48 -0.17,-136.43 107.77 80
9 03/07/2012 07:24:34
